Find Starlink 6274

NORAD ID: 56776 Int'l Des: 2023-078 Owner: SPXS Country: US Constellation: starlink operational
LEOCIRCULAR

リアルタイム位置

3D地球を読み込み中...

Starlink 6274について

説明を読み込み中...

次回通過

Passes for default location (London). Set your location on the main map for personalized predictions.

高度履歴

Loading altitude history...

軌道要素

1 56776U 23078K 26125.53331373 -.00000106 00000-0 -10906-5 0 9995
2 56776 70.0006 181.3159 0003145 263.2951 96.7850 14.98328373161680
Epoch: May 5, 2026 • Age: 19 hours

現在のステータス

高度 594.7 km
速度 7.56 km/s
衛星直下点 -67.37°S, 81.77°E
打ち上げ日 May 31, 2023
運用期間 2.9 years
タイプ internet

技術仕様

分類 Payload
質量 305.00 kg
乾燥質量 290.00 kg
総質量 305.00 kg
長さ 0.20 m
直径 2.80 m
スパン 9.00 m
形状 Box + pan
製造者 SPXS
バスタイプ Starlink
フェーズステータス In Orbit
所有者/国 SPXS/US

Most Searched